www.pogodaiklimat.ru

Погода и климат >> Архив погоды >> Ирак >> Ханакин


ПОГОДА в Ханакине

  • Прогноз погоды в Ханакине
  • Монитор погоды в Ханакине

АРХИВ ПОГОДЫ в Ханакине

Время (UTC), дата Ветер
(напр.,м/с)
 
Видим.   Явления Облачность Т
(С)
Тd
(С)
f
(%)
Тe
(С)
Тes
(С)
Комфортность P
(гПа)
Po
(гПа)
Тmin
(С)
Tmax
(С)
R
(мм)
R24
(мм)
S
(см)
03 13.08 штиль 0 10 км 4/0
[Ci fib]
+36.0 +14.6 28 +37 +38 душно 996.0 974.0
06 13.08 ЮЗ 3 10 км 3/0
[Ci sp]
+44.5 +16.7 20 +46 +55 опасность
перегрева
995.5 974.1 +31.3
09 13.08 ЮЗ 3 10 км 3/0
[Ci sp]
+48.8 +16.7 16 +51 +66 опасность
перегрева
995.6 974.5
12 13.08 ЮЗ 2 10 км 4/0
[Ci sp]
+49.1 +15.8 15 +50 +60 опасность
перегрева
994.8 973.7
15 13.08 З 2 10 км 4/0
[Ci fib]
+45.0 +15.8 19 +47 +47 опасность
перегрева
995.0 973.6
18 13.08 штиль 0 10 км 3/0
[Ci fib]
+45.1 +15.8 19 +47 +47 опасность
перегрева
996.1 974.7 +51.0
06 14.08 В 2 10 км ясно +43.8 +14.3 18 +44 +55 опасность
перегрева
1000.4 978.8 +34.0
09 14.08 З 3 10 км ясно +45.5 +15.6 18 +47 +63 опасность
перегрева
999.9 978.5
12 14.08 З 2 10 км 3/0
[Ci fib]
+50.3 +15.9 14 +52 +62 опасность
перегрева
997.3 976.2
06 15.08 штиль 0 10 км ясно +43.0 +16.6 22 +45 +60 опасность
перегрева
1000.4 978.8 +33.5
09 15.08 Ю 2 10 км 4/0
[Ci fib]
+46.6 +17.6 19 +49 +67 опасность
перегрева
999.8 978.4
12 15.08 З 2 10 км 4/0
[Ci fib]
+45.2 +15.6 18 +46 +56 опасность
перегрева
998.7 977.3
15 15.08 штиль 0 10 км 1/0
[Ci fib]
+42.7 +15.7 21 +44 +44 опасность
перегрева
998.9 977.3
18 15.08 штиль 0 10 км 3/0
[Ci fib]
+42.5 +13.4 18 +42 +42 опасность
перегрева
999.7 978.1 +48.5
03 16.08 штиль 0 10 км ясно +30.5 +14.4 38 +33 +33 душно 1001.8 979.3
06 16.08 штиль 0 10 км ясно +35.6 +13.5 27 586.9 +29.5
12 16.08 З 2 10 км ясно +44.4 +14.7 18 +45 +56 опасность
перегрева
998.8 977.3
15 16.08 штиль 0 10 км ясно +41.6 +14.4 20 +42 +42 опасность
перегрева
999.9 978.2
18 16.08 штиль 0 10 км ясно +38.8 +14.3 24 +40 +40 очень
душно
999.9 978.0 +46.5
06 17.08 штиль 0 10 км ясно +35.5 +13.4 27 +36 +51 опасность
солнечного
удара
1000.4 978.3 +27.0
09 17.08 ЮЗ 2 10 км ясно +41.2 +13.6 20 +41 +60 опасность
перегрева
999.8 978.1
12 17.08 З 2 10 км ясно +42.6 +12.7 17 +42 +53 опасность
перегрева
998.0 976.4
15 17.08 штиль 0 10 км ясно +40.0 +13.2 21 +40 +41 очень
душно
998.6 976.8
06 18.08 штиль 0 10 км ясно +33.5 +11.2 26 +33 +48 жарко 998.8 976.6 +25.4
09 18.08 ЮЗ 2 10 км ясно +40.6 +13.3 20 +41 +60 опасность
перегрева
997.4 975.7
15 18.08 ЮВ 1 10 км ясно +40.5 +14.3 21 +41 +41 опасность
перегрева
999.2 977.4
18 18.08 штиль 0 10 км ясно +37.0 +14.6 26 +38 +38 душно 999.9 977.9 +45.5
06 19.08 штиль 0 10 км ясно +35.6 1003.1 980.9 +26.0
09 19.08 ЮЗ 3 10 км ясно +42.8 +15.4 20 +44 +60 опасность
перегрева
1002.8 981.1
12 19.08 З 2 10 км ясно +44.6 +14.7 18 +45 +56 опасность
перегрева
1002.0 980.5
15 19.08 Ю 1 10 км ясно +41.9 +15.5 22 +43 +44 опасность
перегрева
1002.4 980.7
18 19.08 штиль 0 10 км ясно +37.1 +13.8 25 +38 +38 душно 1003.1 981.0 +47.4

 

Местоположение метеостанции Ханакин (Ирак): широта 34.30 долгота 45.43 высота над уровнем моря 202 м.

В архиве по умолчанию представлена погода в Ханакине за последнюю неделю. Архивные данные за месяц целиком и за предыдущие месяцы, начиная с января 2011 года, Вы можете получить, выбрав интересующий диапазон дат из раскрывающегося списка и нажав кнопку "Ввод!".


*Определитесь, кто Вы:
робот инопланетянин человек

Внимание! Время в таблицах - всемирное. Для получения местного времени необходимо прибавить поправку, которая равна 3 ч.

Смотрите также архив погоды в соседних городах и на ближайших метеорологических станциях:

Погода в Тузе (Ирак) (96 км)
Погода в Эль-Халисе (Ирак) (98 км)
Погода в Айн Аль-Тамаре (Ирак) (106 км)
Погода в Халабче (Ирак) (111 км)
Погода в Иламе (Иран) (119 км)
Погода в Сулеймании (Ирак) (139 км)
Погода в Бадре (Ирак) (142 км)
Погода в Чамчамале (Ирак) (146 км)
Погода в Керманшахе (Иран) (155 км)
Погода в Эль-Азизии (Ирак) (157 км)

Пояснения к столбцам:

Ветер - указаны скорость ветра в м/с - средняя за 10 мин, порывы в срок и между сроками (в фигурных скобках) и направление, откуда дует ветер: С - северный, СВ - северо-восточный, В - восточный, ЮВ - юго-восточный, Ю - южный, ЮЗ - юго-западный, З - западный, СЗ - северо-западный.
Видимость - горизонтальная дальность видимости в метрах или километрах. При видимости от 1 до 10 км при отсутствии осадков обычно наблюдается дымка, при ухудшении видимости до 1 км и менее - туман. В сухую погоду видимость может ухудшаться дымом, пылью или мглою.
Явления - указаны атмосферные явления, наблюдавшиеся в срок или в последний час перед сроком; фигурными скобками обозначены явления, наблюдавшиеся между сроками (за 1-3 часа до срока); квадратными скобками обозначены град или гололедные отложения с указанием их диаметра в мм.
Облачность - указаны через наклонную черту общая и нижняя облачность в баллах и высота нижней границы облаков в метрах; квадратными скобками обозначены формы облаков: Ci - перистые, Cs - перисто-слоистые, Cc - перисто-кучевые, Ac - высококучевые, As - высокослоистые, Sc - слоисто-кучевые, Ns - слоисто-дождевые, Cu - кучевые, Cb - кучево-дождевые. Подробнее классификацию облаков см. в Атласе облаков (PDF).
T - Температура воздуха - температура, измеренная на высоте 2 м над землей.
Td - Температура точки росы - температура, при понижении до которой содержащийся в воздухе водяной пар достигнет насыщения.
f - Относительная влажность воздуха - влажноcть воздуха, измеренная на высоте 2 м над землей.
Te - Эффективная температура - температура, которую ощущает одетый по сезону человек в тени. Характеристика душности погоды. При расчете учитывается влияние влажности воздуха и скорости ветра на теплоощущения человека.
Tes - Эффективная температура на солнце - температура, которую ощущает человек, с поправкой на солнечный нагрев. Характеристика знойности погоды. Зависит от высоты солнца над горизонтом, облачности и скорости ветра. Ночью, в пасмурную погоду, а также при ветре 12 м/с и более поправка равна нулю.
P - Атмосферное давление - приведенное к уровню моря атмосферное давление.
Po - Атмосферное давление - измеренное на уровне метеостанции атмосферное давление.
Tmin - Минимальная температура - минимум температуры воздуха на высоте 2 м над землей.
Tmax - Максимальная температура - максимум температуры воздуха на высоте 2 м над землей.
R - Количество осадков - Количество выпавших осадков за период времени, мм. При наведении курсора мыши на число - период времени, за который выпало указанное количество осадков.
R24 - Количество осадков - Количество выпавших осадков за 24 часа, мм.
S - Снежный покров - Высота снежного покрова, см. При наведении курсора мыши на число - состояние снежного покрова и степень покрытия местности в баллах.